Home   Weather   Compton   Past weeks
Flag for USA

Past Weather in Compton, California, USA — Yesterday and Last 2 Weeks

Now
52 °F

Clear.


Feels Like: 52 °F
Forecast: 71 / 51 °F
Wind: No wind

Location: Hawthorne Municipal Airport

Current Time: Jan 24, 2020 at 5:47:44 am

Latest Report: Jan 24, 2020 at 4:53 am


Visibility: 10 mi

Pressure: 30.01 "Hg

Humidity: 80%

Dew Point: 46 °F

Location of ComptonLocation

Past Weather in Compton — Graph

°F

Compton Temperature Yesterday

Maximum temperature yesterday: 70 °F (at 12:34 pm)
Minimum temperature yesterday: 51 °F (at 3:53 am)
Average temperature yesterday: 60 °F

High & Low Weather Summary for the Past Weeks

 TemperatureHumidityPressure
High76 °F (Jan 19, 12:01 pm)92% (Jan 16, 11:35 pm)30.27 "Hg (Jan 16, 11:35 pm)
Low47 °F (Jan 10, 4:53 am)15% (Jan 19, 12:01 pm)29.90 "Hg (Jan 9, 2:53 pm)
Average56 °F68%30.10 "Hg
* Reported Jan 9 3:01 am — Jan 24 3:53 am, Compton. Weather by CustomWeather, © 2020

Note: Actual official high and low records may vary slightly from our data, if they occured in-between our weather recording intervals... More about our weather records

Compton Weather History for the Previous 24 Hours

Scroll right to see more
 ConditionsComfort  
Time TempWeatherWind HumidityBarometerVisibility
3:53 am
Fri, Jan 24
52 °FClear.No wind83%30.00 "Hg10 mi
2:53 am53 °FClear.5 mph83%30.01 "Hg10 mi
1:53 am54 °FClear.No wind83%30.01 "Hg10 mi
12:53 am55 °FClear.No wind83%30.02 "Hg10 mi
11:53 pm
Thu, Jan 23
56 °FClear.No wind87%30.03 "Hg10 mi
10:53 pm57 °FClear.No wind83%30.04 "Hg10 mi
9:53 pm58 °FClear.No wind81%30.05 "Hg10 mi
8:53 pm59 °FClear.3 mph81%30.04 "Hg10 mi
7:53 pm60 °FClear.No wind78%30.05 "Hg10 mi
6:53 pm61 °FClear.5 mph75%30.04 "Hg10 mi
5:53 pm62 °FClear.6 mph73%30.03 "Hg10 mi
4:53 pm63 °FSunny.8 mph70%30.02 "Hg10 mi
3:53 pm65 °FSunny.9 mph68%30.03 "Hg10 mi
2:53 pm67 °FSunny.10 mph53%30.04 "Hg10 mi
1:53 pm67 °FSunny.12 mph61%30.05 "Hg10 mi
12:53 pm70 °FSunny.7 mph55%30.06 "Hg10 mi
12:34 pm70 °FSunny.6 mph49%30.07 "Hg10 mi
11:53 am69 °FSunny.6 mph53%30.10 "Hg10 mi
11:29 am69 °FSunny.7 mph53%30.12 "Hg10 mi
11:14 am69 °FSunny.3 mph45%30.13 "Hg2 mi
10:53 am68 °FSunny.5 mph47%30.14 "Hg10 mi
9:53 am64 °FSunny.No wind58%30.15 "Hg10 mi
8:53 am59 °FSunny.3 mph75%30.16 "Hg9 mi
7:53 am54 °FSunny.No wind74%30.15 "Hg9 mi
6:53 am51 °FClear.5 mph77%30.14 "Hg8 mi
5:53 am51 °FClear.No wind80%30.12 "Hg8 mi
Weather by CustomWeather, © 2020

See weather overview

Advertising